Regional Weather Roundup
Issued by NWS

Home | Current Version | Previous Version | Graphics & Text | Print | Product List | Glossary On
Versions: 1 2 3 4 5 6 7 8 9 10 11 12 13 14 15 16 17 18 19 20 21 22 23 24 25 26 27 28 29 30 31 32 33 34 35 36 37 38 39 40 41 42 43 44 45 46 47 48 49 50
000
ASUS45 KCYS 260610
RWRWY

WYOMING REGIONAL WEATHER ROUNDUP
NATIONAL WEATHER SERVICE CHEYENNE WY
1200 AM MDT SAT MAY 26 2018

NOTE:  "FAIR" INDICATES FEW OR NO CLOUDS BELOW 12,000 FEET
WITH NO SIGNIFICANT WEATHER AND/OR OBSTRUCTIONS TO VISIBILITY.

WYZ001-260700-
YELLOWSTONE NATIONAL PARK

CITY           SKY/WX    TMP DP  RH WIND       PRES   REMARKS
LK YELLOWSTONE   N/A     38  34  85 CALM      30.09F
6HR MIN TEMP:  38; 6HR MAX TEMP:  64;

W YELLOWSTONE  NOT AVBL

$$
WYZ002>013-054>058-071-098>099-260700-
NORTHERN WYOMING

CITY           SKY/WX    TMP DP  RH WIND       PRES   REMARKS
JACKSON        FAIR      47  41  80 VRB3      29.99S
CODY           FAIR      60  50  69 CALM      29.92F
GREYBULL       FAIR      66  46  48 SE5       29.81F
6HR MIN TEMP:  66; 6HR MAX TEMP:  84;

WORLAND        FAIR      58  50  75 CALM      29.84S
6HR MIN TEMP:  56; 6HR MAX TEMP:  82;

SHERIDAN       FAIR      58  54  86 S3        29.89S
6HR MIN TEMP:  56; 6HR MAX TEMP:  82;

BUFFALO        FAIR      60  50  69 W9        29.95F
6HR MIN TEMP:  59; 6HR MAX TEMP:  78;

GILLETTE         N/A     58  50  75 S7        29.91F
6HR MIN TEMP:  54; 6HR MAX TEMP:  83;

NEWCASTLE      FAIR      64  50  59 E9        29.94F

$$
WYZ014>020-022>026-101>103-260700-
CENTRAL WYOMING

CITY           SKY/WX    TMP DP  RH WIND       PRES   REMARKS
BIG PINEY      FAIR      47  39  74 W5        30.01S
6HR MIN TEMP:  47; 6HR MAX TEMP:  76;

PINEDALE       FAIR      48  37  66 CALM      30.03S
DUBOIS         FAIR      48  36  61 W6        30.05S
LANDER         FAIR      60  46  59 CALM      29.92F
6HR MIN TEMP:  59; 6HR MAX TEMP:  80;

RIVERTON       FAIR      62  43  49 CALM      29.93S
6HR MIN TEMP:  62; 6HR MAX TEMP:  80;

CASPER         FAIR      56  48  74 E5        29.95F
6HR MIN TEMP:  52; 6HR MAX TEMP:  81;

DOUGLAS        FAIR      56  52  86 E7        29.97F
6HR MIN TEMP:  56; 6HR MAX TEMP:  83;


$$
WYZ021-027>030-104>119-260700-
SOUTHERN WYOMING

CITY           SKY/WX    TMP DP  RH WIND       PRES   REMARKS
EVANSTON       FAIR      61  32  33 S6        30.03S
6HR MIN TEMP:  59; 6HR MAX TEMP:  76;

FORT BRIDGER   FAIR      64  29  26 SW9       30.05S
ROCK SPRINGS   FAIR      63  14  15 S13       30.01S
6HR MIN TEMP:  59; 6HR MAX TEMP:  79;

DIXON          FAIR      55  25  31 E5        30.07S
RAWLINS        FAIR      61  22  22 SW6       30.03F
6HR MIN TEMP:  52; 6HR MAX TEMP:  80;

SARATOGA       FAIR      50  28  43 SE9       30.07F
LARAMIE        FAIR      57  34  41 S9        30.11S
6HR MIN TEMP:  50; 6HR MAX TEMP:  77;

CHEYENNE       FAIR      57  46  66 CALM      30.06F
6HR MIN TEMP:  57; 6HR MAX TEMP:  79;

TORRINGTON     FAIR      60  54  80 E6        29.93S
6HR MIN TEMP:  60; 6HR MAX TEMP:  85;

PINE BLUFFS    FAIR      59  43  55 S5        30.01F

$$



USA.gov is the U.S. government's official web portal to all federal, state and local government web resources and services.